Satellite: AUBIESAT Catalog number: 37854 Epoch time: 13150.53292979 Element set: 510 Inclination: 101.7197 deg RA of node: 356.8167 deg Eccentricity: 0.0235563 Arg of perigee: 076.7859 deg Mean anomaly: 337.4244 deg Mean motion: 14.84237342 rev/day Decay rate: 4.370e-05 rev/day^2 Epoch rev: 8584 Checksum: 329
Satellite: HRBE Catalog number: 37855 Epoch time: 13150.59704083 Element set: 508 Inclination: 101.7198 deg RA of node: 356.6850 deg Eccentricity: 0.0236568 Arg of perigee: 077.0533 deg Mean anomaly: 318.4123 deg Mean motion: 14.83905516 rev/day Decay rate: 4.268e-05 rev/day^2 Epoch rev: 8584 Checksum: 319
Satellite: RS-39 Catalog number: 38051 Epoch time: 13150.86251196 Element set: 489 Inclination: 051.6375 deg RA of node: 294.1805 deg Eccentricity: 0.0011994 Arg of perigee: 202.1569 deg Mean anomaly: 318.6881 deg Mean motion: 15.32314980 rev/day Decay rate: 1.6784e-04 rev/day^2 Epoch rev: 7512 Checksum: 323
Satellite: E-STAR Catalog number: 38079 Epoch time: 13150.71629719 Element set: 166 Inclination: 069.4747 deg RA of node: 224.6095 deg Eccentricity: 0.0618203 Arg of perigee: 160.4476 deg Mean anomaly: 335.3616 deg Mean motion: 14.45209980 rev/day Decay rate: 6.0903e-04 rev/day^2 Epoch rev: 6721 Checksum: 316
Satellite: GOLIAT Catalog number: 38085 Epoch time: 13150.62419736 Element set: 81 Inclination: 069.4758 deg RA of node: 226.8646 deg Eccentricity: 0.0629920 Arg of perigee: 161.6082 deg Mean anomaly: 318.7488 deg Mean motion: 14.43122137 rev/day Decay rate: 6.3725e-04 rev/day^2 Epoch rev: 6714 Checksum: 321
Satellite: HORYU-2 Catalog number: 38340 Epoch time: 13150.41723730 Element set: 509 Inclination: 098.2155 deg RA of node: 097.9179 deg Eccentricity: 0.0011737 Arg of perigee: 313.9843 deg Mean anomaly: 046.0381 deg Mean motion: 14.70923885 rev/day Decay rate: 1.386e-05 rev/day^2 Epoch rev: 5550 Checksum: 304
Satellite: RS-40 Catalog number: 38736 Epoch time: 13150.60460489 Element set: 283 Inclination: 082.4778 deg RA of node: 166.0862 deg Eccentricity: 0.0021789 Arg of perigee: 009.1145 deg Mean anomaly: 351.0336 deg Mean motion: 12.42868319 rev/day Decay rate: 1.0e-07 rev/day^2 Epoch rev: 3806 Checksum: 297
Satellite: PROITERES Catalog number: 38756 Epoch time: 13150.73950240 Element set: 825 Inclination: 098.2530 deg RA of node: 227.4607 deg Eccentricity: 0.0012914 Arg of perigee: 156.7590 deg Mean anomaly: 203.4187 deg Mean motion: 14.74216469 rev/day Decay rate: 8.63e-06 rev/day^2 Epoch rev: 3882 Checksum: 305
Satellite: RAIKO Catalog number: 38852 Epoch time: 13150.47458156 Element set: 238 Inclination: 051.6371 deg RA of node: 179.8633 deg Eccentricity: 0.0013157 Arg of perigee: 331.4560 deg Mean anomaly: 028.5718 deg Mean motion: 15.76088159 rev/day Decay rate: 8.9465e-04 rev/day^2 Epoch rev: 3707 Checksum: 325
Satellite: FITSAT 1 Catalog number: 38853 Epoch time: 13150.33192380 Element set: 241 Inclination: 051.6392 deg RA of node: 175.9137 deg Eccentricity: 0.0012723 Arg of perigee: 355.5233 deg Mean anomaly: 004.5656 deg Mean motion: 15.86909216 rev/day Decay rate: 2.00770e-03 rev/day^2 Epoch rev: 3716 Checksum: 286
Satellite: TechEdSat Catalog number: 38854 Epoch time: 13124.93253577 Element set: 290 Inclination: 051.6449 deg RA of node: 297.0261 deg Eccentricity: 0.0010505 Arg of perigee: 310.8629 deg Mean anomaly: 049.0629 deg Mean motion: 16.38844728 rev/day Decay rate: 1.1592855e-01 rev/day^2 Epoch rev: 3329 Checksum: 325
Satellite: F 1 Catalog number: 38855 Epoch time: 13129.77714356 Element set: 287 Inclination: 051.5085 deg RA of node: 272.4145 deg Eccentricity: 0.0008326 Arg of perigee: 194.2908 deg Mean anomaly: 166.5495 deg Mean motion: 16.49710473 rev/day Decay rate: 2.7424026e-01 rev/day^2 Epoch rev: 3394 Checksum: 332
Satellite: WeWish Catalog number: 38856 Epoch time: 13069.98095549 Element set: 248 Inclination: 051.6166 deg RA of node: 215.0521 deg Eccentricity: 0.0008325 Arg of perigee: 316.0438 deg Mean anomaly: 044.8765 deg Mean motion: 16.41348316 rev/day Decay rate: 1.6701328e-01 rev/day^2 Epoch rev: 2458 Checksum: 318
Satellite: OSSI-1 Catalog number: 39131 Epoch time: 13113.49391669 Element set: 3 Inclination: 064.8913 deg RA of node: 019.7169 deg Eccentricity: 0.0213781 Arg of perigee: 058.2074 deg Mean anomaly: 115.1737 deg Mean motion: 15.55484603 rev/day Decay rate: 1.71511e-03 rev/day^2 Epoch rev: 63 Checksum: 287
Satellite: BEESAT-3 Catalog number: 39134 Epoch time: 13150.74725545 Element set: 100 Inclination: 064.8772 deg RA of node: 263.3393 deg Eccentricity: 0.0015338 Arg of perigee: 208.8251 deg Mean anomaly: 151.1994 deg Mean motion: 15.00226515 rev/day Decay rate: 5.605e-05 rev/day^2 Epoch rev: 621 Checksum: 273
Satellite: BEESAT-2 Catalog number: 39136 Epoch time: 13150.74699170 Element set: 99 Inclination: 064.8779 deg RA of node: 263.3384 deg Eccentricity: 0.0015442 Arg of perigee: 208.9509 deg Mean anomaly: 151.0744 deg Mean motion: 15.00211118 rev/day Decay rate: 4.972e-05 rev/day^2 Epoch rev: 621 Checksum: 296
/EX